Wetbulb
50.51 50.62 50.50 50.50 50.18 48.62 49.34 50.40 48.75 58.10 57.66 47.88 49.55 45.94 51.17 50.39 51.22 52.18 50.84 50.90 49.76 48.24 49.74 47.56 46.06 48.14 50.30 52.97 51.90 47.60 48.81 44.89 40.91 45.35 50.69 50.66 46.60 43.59 43.50 36.82 36.40 41.08 39.49 38.29
50.28 50.45 50.31 50.33 50.13 49.00 45.22 46.24 50.81 58.02 56.09 43.02 44.96 50.57 52.82 52.61 50.79 50.90 51.42 50.32 51.40 51.19 47.61 44.31 48.19 49.91 52.52 52.33 51.72 47.09 45.98 43.04 37.72 38.85 43.14 46.34 44.99 48.88 47.26 43.80 42.98 39.24 36.13 38.08
49.93 50.20 50.20 50.20 50.00 49.38 46.76 47.63 46.50 51.79 52.96 51.08 48.40 48.23 49.31 49.39 51.41 51.21 51.52 50.56 51.05 49.30 46.89 47.82 46.20 48.60 52.92 51.94 50.61 53.60 49.65 41.81 39.89 34.86 38.68 42.36 42.03 45.64 47.32 42.84 37.64 39.80 40.22 40.80
49.34 50.00 50.22 50.31 49.61 48.89 47.57 50.38 48.61 49.64 44.47 47.02 48.01 47.88 48.07 47.88 48.32 50.30 50.43 48.14 48.34 47.37 43.22 45.43 44.98 48.75 50.23 51.14 52.87 48.40 44.80 38.15 41.48 44.13 46.62 46.39 44.90 44.69 45.05 43.03 42.91 39.75 41.33 40.52
48.93 49.24 49.88 50.25 49.73 48.63 50.69 47.50 45.82 47.60 45.76 48.92 47.64 46.05 45.60 46.50 48.09 49.78 47.70 46.21 49.08 48.31 43.69 44.35 43.18 45.51 45.49 45.87 48.01 45.32 45.66 39.42 42.94 42.14 46.22 45.46 43.28 44.69 44.12 43.66 43.76 42.68 42.80 41.49
48.71 48.65 49.55 50.34 50.25 49.30 49.99 50.80 51.01 47.46 46.39 46.09 45.54 45.50 47.98 48.75 49.48 49.90 49.66 47.26 46.06 45.12 45.11 46.87 45.49 44.73 46.49 45.81 43.28 43.50 43.35 41.66 39.87 36.34 44.10 42.83 37.65 42.79 44.09 44.47 45.41 44.27 40.23 43.66
48.56 48.34 48.86 49.91 50.32 49.07 45.89 50.29 48.45 44.17 42.29 45.52 46.19 48.82 48.59 47.26 46.97 45.39 48.79 47.77 44.86 46.87 49.14 48.18 46.35 44.65 45.89 45.67 44.53 45.51 41.60 39.99 39.29 34.88 38.58 29.61 40.68 47.35 47.52 45.59 46.68 47.87 47.11 52.40
48.73 47.73 48.06 49.15 49.95 50.16 45.67 48.70 48.44 45.52 41.35 45.91 46.98 47.28 46.16 47.18 46.93 46.01 46.56 48.72 47.80 47.76 45.00 39.09 37.22 37.46 38.09 41.84 43.94 42.95 43.89 40.37 34.70 32.18 33.08 38.90 42.36 45.16 44.54 43.05 44.16 50.92 51.03 52.18
48.98 47.42 47.38 48.73 49.38 49.96 46.94 48.72 52.30 46.73 41.77 43.37 47.18 45.04 46.01 41.92 42.04 44.04 47.22 48.03 48.37 45.75 40.18 37.12 31.37 31.56 39.16 39.06 41.32 44.57 43.74 42.19 37.39 34.52 30.92 29.82 40.88 48.13 51.26 50.23 39.74 49.77 50.30 49.57
49.05 47.84 46.89 47.97 48.60 48.93 46.38 46.02 51.96 46.38 42.21 46.41 46.66 43.15 41.77 45.01 42.35 40.98 43.80 44.00 42.87 44.61 37.83 34.58 32.69 33.35 40.31 34.59 35.78 37.43 37.29 37.92 35.20 34.38 31.45 36.79 45.45 49.64 52.52 37.79 40.02 49.95 49.97 49.24
48.92 48.21 47.13 47.55 48.01 48.23 45.72 45.90 52.54 45.81 42.54 44.04 47.25 46.48 43.70 43.65 42.95 38.13 43.30 41.67 41.39 38.49 34.89 34.93 35.48 34.95 37.72 36.73 39.60 38.56 38.81 36.51 35.76 36.89 34.20 31.47 50.56 50.79 43.90 47.74 49.79 47.95 49.16 47.65
48.80 48.13 47.46 47.51 47.53 48.01 47.23 43.13 51.99 50.56 42.99 42.82 46.04 46.54 47.47 47.16 46.31 42.37 42.95 41.51 41.87 42.24 37.41 37.58 37.21 35.91 36.90 36.42 32.15 42.62 35.68 40.52 39.47 40.86 38.95 47.11 49.33 48.13 51.78 50.07 48.60 48.36 48.39 49.33
48.69 48.15 47.60 47.40 47.48 47.91 47.39 44.27 46.56 47.40 42.02 42.18 42.98 42.95 47.60 49.17 48.03 47.73 39.54 42.52 43.96 43.60 44.78 39.24 36.97 33.48 36.65 31.07 33.20 35.64 39.95 44.12 38.74 37.66 42.53 43.27 47.34 50.91 53.56 52.65 49.58 49.97 49.93 50.22
48.28 48.00 47.46 47.12 47.69 47.53 47.57 44.83 47.89 46.91 42.76 37.26 41.88 49.79 47.00 50.75 48.56 47.13 46.85 45.24 45.32 43.98 42.47 38.61 36.82 34.14 39.41 33.84 35.90 35.23 37.13 39.34 37.81 36.68 39.64 44.71 44.49 45.89 46.76 48.55 51.46 50.71 50.45 50.89
48.11 48.23 47.15 47.23 47.49 47.92 47.02 46.38 47.93 48.87 41.78 36.38 38.60 44.40 47.46 47.57 46.84 45.64 45.40 44.02 42.00 39.13 36.73 36.31 34.33 36.60 35.01 36.43 36.63 34.85 37.42 35.32 33.36 33.53 40.09 40.15 41.05 44.89 47.33 44.25 44.57 45.64 46.21 47.02
47.98 47.19 47.90 48.11 46.94 47.20 45.45 42.31 47.67 46.33 47.52 39.13 34.17 43.43 44.91 45.87 45.99 44.48 43.55 43.19 42.31 40.11 37.04 35.86 37.51 39.94 36.67 31.22 30.37 36.99 39.18 40.50 39.65 38.37 41.48 41.85 43.43 44.73 45.79 45.35 45.68 46.16 45.87 46.06
47.63 47.55 47.13 46.61 46.38 44.82 42.13 40.62 44.50 46.36 46.19 39.42 35.14 36.11 42.85 45.92 44.60 43.74 42.52 43.39 40.77 39.40 37.85 37.13 37.55 37.36 37.21 33.33 29.99 36.96 39.99 41.78 42.07 43.07 42.57 40.18 42.12 41.05 43.80 44.65 45.65 46.93 46.51 46.56
47.24 46.95 46.63 46.64 46.93 46.24 42.57 45.74 47.83 45.26 41.57 40.55 33.61 34.57 38.46 44.91 39.41 37.71 42.83 39.81 40.29 39.18 37.60 37.71 35.94 37.27 37.70 32.43 37.25 40.00 41.57 42.62 42.82 43.25 43.58 42.32 43.06 43.14 43.12 44.09 44.08 43.38 43.57 44.36
47.11 47.19 47.04 46.06 43.15 41.62 43.91 48.43 46.54 45.91 42.06 36.05 35.96 31.87 31.61 43.73 40.31 40.59 40.34 41.34 35.24 41.05 36.79 36.69 37.52 35.52 32.03 36.15 38.24 39.94 41.58 40.84 41.39 43.29 43.47 42.93 41.64 42.27 43.15 43.82 43.30 42.37 43.21 44.12
47.15 45.26 41.34 38.71 44.40 49.28 47.07 42.64 39.69 39.62 40.13 39.12 33.37 37.85 33.60 39.16 37.60 36.23 36.89 38.75 34.79 30.97 35.44 39.33 35.76 35.10 40.00 41.09 42.32 43.11 43.17 42.97 43.16 40.04 40.48 42.02 41.64 43.16 43.22 43.44 44.63 43.76 43.61 43.68
43.48 41.16 41.14 46.10 48.85 43.83 40.45 36.85 35.19 36.38 34.64 37.51 37.08 37.33 34.60 40.97 34.68 34.55 38.00 33.52 34.57 29.27 33.00 33.34 32.64 32.24 37.42 41.21 42.63 44.66 45.04 44.39 44.81 44.97 44.74 43.51 43.69 43.57 42.89 43.22 45.04 45.30 45.11 45.29
44.61 43.47 46.19 45.23 40.54 38.03 33.97 33.80 36.30 34.76 32.28 38.02 36.52 38.47 39.08 40.43 42.74 37.88 37.97 33.77 33.87 28.19 37.15 32.57 28.94 35.07 41.62 43.82 44.17 44.02 43.35 44.91 45.70 45.31 44.32 45.16 45.41 45.34 44.77 44.84 44.84 44.86 43.75 45.41
46.91 41.73 39.88 38.74 37.73 30.59 28.98 27.41 31.58 32.36 37.85 39.01 39.71 37.54 39.84 40.71 41.55 37.72 35.93 31.57 30.28 37.41 31.32 29.61 33.45 40.14 42.10 42.94 44.03 44.72 45.86 45.66 45.77 45.51 45.44 45.74 45.40 45.88 46.25 45.25 46.85 47.39 47.37 45.62
40.24 36.50 27.16 32.48 30.11 32.14 32.79 33.25 34.43 38.96 39.69 39.63 40.58 38.89 38.17 39.52 36.20 35.95 31.47 34.27 35.06 29.29 27.45 29.22 37.02 39.73 42.01 43.63 43.38 42.75 43.72 45.29 44.85 45.02 45.37 45.19 45.17 45.32 45.59 45.70 46.68 46.29 45.79 47.15
37.30 37.51 28.33 31.68 35.81 37.37 38.79 39.57 39.06 40.62 41.76 40.15 39.65 39.36 39.01 36.41 34.18 35.45 33.46 30.77 28.70 31.12 30.15 36.02 40.26 42.04 42.86 42.65 43.34 42.79 43.16 44.59 44.15 44.13 44.15 44.40 44.98 45.09 45.31 46.23 44.88 45.12 45.43 46.21
38.68 37.28 34.15 37.18 36.29 35.71 38.54 39.76 37.68 40.96 41.84 42.22 40.44 36.68 33.79 32.97 33.99 31.64 29.66 29.09 28.03 31.84 38.40 41.19 42.56 42.08 43.12 43.55 43.97 44.10 44.62 43.97 43.76 44.57 45.19 45.14 44.71 44.42 43.98 45.03 45.03 45.19 45.81 45.41
36.95 35.70 39.69 38.21 38.01 37.06 38.57 40.48 39.60 44.14 40.58 36.10 37.76 32.60 31.57 36.93 32.24 30.81 34.55 31.81 35.13 37.91 38.42 40.71 42.07 42.09 42.11 42.87 43.41 43.87 44.30 44.27 44.56 44.61 44.04 43.58 44.27 44.24 44.03 43.11 44.01 45.42 46.59 47.27
MSLP
1020.57 1019.98 1019.49 1018.94 1018.42 1016.69 1014.73 1014.32 1011.97 1008.78 1008.51 1009.53 1009.41 1009.00 1008.06 1007.02 1006.17 1006.20 1006.27 1006.25 1006.40 1006.33 1006.15 1006.05 1006.17 1006.89 1007.17 1007.35 1007.49 1008.27 1009.22 1009.23 1009.08 1008.20 1007.01 1006.69 1007.40 1008.25 1009.80 1011.31 1011.70 1011.50 1011.01 1009.86
1020.62 1020.20 1019.69 1019.24 1019.01 1018.49 1017.89 1015.65 1012.18 1008.92 1008.81 1009.61 1009.56 1008.73 1007.51 1006.90 1006.60 1006.75 1006.83 1006.95 1007.14 1007.11 1007.29 1007.47 1007.21 1007.43 1008.23 1008.21 1008.66 1009.58 1010.11 1010.27 1010.10 1008.87 1008.01 1007.71 1008.16 1008.86 1010.10 1010.87 1011.04 1010.96 1010.52 1009.31
1020.85 1020.36 1019.68 1019.18 1018.97 1018.79 1018.42 1016.32 1012.79 1010.29 1009.60 1009.67 1009.81 1009.40 1008.19 1007.41 1007.21 1007.48 1007.73 1007.88 1008.12 1008.09 1008.38 1008.41 1008.54 1008.44 1008.81 1008.99 1009.58 1010.16 1010.57 1011.34 1011.33 1010.90 1010.04 1009.89 1009.53 1009.37 1009.95 1010.64 1011.41 1010.80 1010.06 1008.82
1020.71 1020.33 1019.89 1019.25 1018.55 1018.14 1018.24 1016.05 1013.54 1012.86 1011.69 1011.15 1010.79 1010.22 1009.42 1008.52 1008.16 1008.13 1008.22 1008.74 1009.13 1009.44 1009.75 1009.86 1009.77 1009.62 1009.38 1009.52 1010.26 1010.76 1011.43 1012.02 1011.84 1011.37 1010.55 1010.05 1009.76 1009.62 1009.60 1010.14 1009.81 1010.02 1009.17 1008.74
1020.75 1020.55 1020.19 1019.54 1018.59 1017.41 1017.08 1016.11 1015.22 1014.26 1013.53 1012.29 1011.47 1011.05 1010.30 1009.55 1008.86 1008.66 1008.86 1009.39 1009.86 1010.39 1011.00 1011.80 1011.77 1011.63 1011.76 1011.79 1011.56 1011.50 1011.93 1012.47 1012.34 1012.12 1011.27 1010.42 1009.55 1009.49 1009.30 1009.20 1008.92 1008.54 1008.25 1007.99
1020.89 1020.72 1020.34 1019.86 1019.25 1017.72 1017.44 1016.86 1016.21 1015.58 1014.26 1013.11 1012.19 1011.34 1010.64 1009.95 1009.60 1009.49 1009.67 1010.33 1010.99 1011.71 1012.51 1012.67 1012.67 1012.50 1012.53 1012.66 1012.76 1012.83 1012.90 1013.01 1013.35 1013.02 1012.28 1011.18 1009.77 1008.79 1008.40 1008.13 1008.12 1008.06 1008.07 1007.55
1020.83 1020.72 1020.48 1020.27 1020.05 1019.81 1019.44 1018.05 1017.41 1016.74 1015.19 1013.93 1012.73 1011.70 1011.07 1010.62 1010.80 1010.75 1010.84 1011.18 1012.06 1013.31 1013.11 1012.86 1012.62 1012.54 1012.51 1012.55 1012.57 1012.96 1013.60 1014.02 1014.19 1014.13 1013.64 1011.94 1009.53 1008.41 1007.98 1007.93 1007.84 1007.80 1007.70 1007.96
1020.70 1020.75 1020.64 1020.49 1020.29 1020.06 1019.67 1018.64 1018.03 1017.40 1016.25 1014.95 1013.58 1012.63 1012.17 1011.23 1011.43 1011.68 1011.81 1012.27 1013.43 1013.55 1013.68 1014.10 1013.84 1013.23 1012.84 1012.18 1011.98 1012.24 1012.90 1014.28 1014.87 1014.84 1014.11 1011.45 1010.38 1008.88 1008.48 1008.71 1008.65 1009.06 1008.71 1008.92
1020.58 1020.73 1020.74 1020.61 1020.46 1020.24 1019.67 1018.89 1018.11 1018.11 1017.34 1015.34 1014.66 1013.98 1013.27 1012.78 1012.39 1012.42 1012.43 1013.53 1013.55 1013.89 1014.79 1015.22 1014.76 1013.84 1012.79 1012.09 1011.45 1010.82 1012.65 1013.61 1014.88 1015.06 1014.50 1012.32 1009.78 1008.99 1009.02 1009.01 1009.87 1010.57 1010.02 1010.19
1020.36 1020.62 1020.79 1020.71 1020.67 1020.44 1020.29 1019.27 1018.51 1018.53 1017.71 1015.69 1015.17 1014.73 1014.41 1014.03 1013.84 1013.65 1013.58 1014.04 1014.56 1014.61 1015.48 1015.79 1015.22 1014.24 1013.45 1012.71 1012.06 1012.27 1013.00 1013.68 1014.04 1014.30 1014.02 1011.84 1010.39 1009.91 1009.48 1010.61 1012.31 1012.08 1011.68 1011.48
1020.22 1020.55 1020.72 1020.72 1020.71 1020.53 1020.35 1019.34 1018.63 1018.72 1018.01 1016.43 1016.00 1015.58 1015.32 1014.92 1014.68 1014.90 1014.79 1014.60 1014.82 1015.71 1016.22 1016.09 1015.28 1014.13 1013.17 1012.62 1012.34 1012.34 1012.64 1013.03 1013.51 1013.68 1013.23 1012.15 1010.89 1010.50 1011.56 1012.94 1012.64 1013.25 1012.86 1012.31
1020.16 1020.47 1020.66 1020.82 1020.75 1020.57 1020.51 1019.81 1018.34 1018.29 1018.63 1017.30 1016.34 1015.99 1015.53 1015.36 1015.33 1015.50 1015.37 1015.53 1015.62 1015.72 1016.01 1016.05 1015.67 1014.85 1014.01 1013.54 1012.97 1011.96 1012.20 1012.28 1012.47 1012.43 1011.69 1011.21 1010.96 1011.42 1011.98 1012.54 1013.10 1013.63 1013.54 1013.45
1020.01 1020.34 1020.62 1020.70 1020.65 1020.63 1020.71 1020.26 1019.28 1018.43 1018.04 1016.77 1016.15 1015.05 1014.62 1014.81 1015.12 1015.32 1016.01 1016.00 1016.14 1016.50 1016.83 1016.52 1016.30 1015.92 1015.06 1014.71 1014.03 1013.39 1012.63 1012.39 1012.65 1012.51 1011.82 1011.54 1011.36 1011.15 1011.10 1011.93 1012.93 1013.42 1013.48 1013.98
1019.90 1020.29 1020.53 1020.58 1020.55 1020.54 1020.60 1020.19 1019.12 1018.61 1018.11 1017.15 1014.97 1014.00 1013.99 1014.04 1014.74 1015.20 1015.64 1016.00 1016.42 1016.89 1017.11 1016.92 1016.56 1016.31 1015.71 1015.24 1014.68 1014.11 1013.81 1013.10 1012.78 1012.32 1012.01 1011.75 1011.81 1012.04 1012.05 1012.20 1012.52 1012.87 1013.22 1013.47
1019.83 1020.10 1020.37 1020.46 1020.49 1020.51 1020.48 1020.05 1018.99 1018.40 1018.59 1017.76 1016.36 1015.43 1014.37 1014.25 1014.69 1015.18 1015.53 1016.04 1016.66 1017.32 1017.40 1017.11 1016.67 1016.11 1016.26 1015.55 1015.02 1013.31 1013.68 1013.25 1013.45 1012.83 1012.80 1012.60 1012.24 1011.97 1011.88 1011.85 1012.04 1012.08 1012.20 1012.18
1019.70 1020.02 1020.25 1020.35 1020.48 1020.46 1020.21 1019.59 1018.89 1018.83 1018.26 1018.49 1016.93 1015.05 1013.93 1014.12 1014.60 1015.18 1015.54 1015.95 1016.58 1017.11 1017.16 1016.78 1016.05 1015.70 1015.89 1015.51 1014.29 1013.00 1013.17 1012.94 1012.86 1012.50 1012.39 1012.24 1011.72 1011.54 1011.55 1011.66 1011.54 1011.42 1011.44 1011.26
1019.69 1020.01 1020.22 1020.36 1020.42 1020.48 1020.30 1020.20 1019.92 1019.50 1019.18 1018.58 1017.17 1015.17 1013.79 1013.83 1014.53 1015.00 1015.27 1015.62 1016.08 1016.41 1016.65 1016.03 1016.03 1015.67 1015.68 1015.14 1013.69 1013.06 1013.03 1012.70 1012.32 1011.88 1011.73 1011.67 1011.43 1011.06 1011.05 1011.24 1011.00 1010.85 1010.69 1010.75
1019.75 1020.07 1020.22 1020.33 1020.37 1020.32 1020.03 1019.54 1019.60 1019.69 1019.51 1018.62 1017.56 1015.61 1014.20 1013.79 1014.35 1014.80 1014.67 1015.26 1015.49 1015.54 1015.58 1015.21 1015.10 1014.88 1014.68 1013.61 1012.48 1012.29 1011.95 1011.57 1011.29 1011.06 1010.99 1010.84 1010.57 1010.22 1010.14 1009.99 1010.05 1010.11 1010.06 1009.86
1019.81 1020.06 1020.16 1020.18 1020.19 1019.53 1019.53 1019.54 1019.63 1019.55 1019.82 1018.90 1017.64 1016.03 1014.62 1014.18 1014.13 1014.06 1014.03 1014.34 1014.65 1014.09 1013.94 1013.89 1014.23 1013.47 1012.61 1011.51 1011.45 1011.26 1010.72 1010.45 1010.25 1010.04 1009.91 1009.76 1009.88 1009.86 1009.65 1009.41 1009.03 1009.02 1009.06 1009.00
1019.84 1020.15 1020.10 1019.60 1019.10 1019.06 1019.44 1019.71 1019.73 1019.60 1019.21 1018.89 1017.70 1016.28 1015.13 1014.53 1014.47 1014.25 1014.20 1013.60 1013.55 1012.82 1012.21 1011.91 1011.94 1011.07 1010.58 1010.15 1009.90 1009.62 1009.65 1009.84 1009.84 1009.85 1009.85 1009.71 1009.53 1009.72 1009.46 1009.08 1008.99 1008.55 1008.09 1008.19
1019.87 1019.63 1019.09 1019.14 1019.02 1019.15 1019.20 1019.38 1019.42 1018.92 1018.34 1017.54 1016.26 1015.63 1015.26 1014.54 1014.48 1014.28 1013.98 1013.61 1013.27 1012.60 1011.75 1011.70 1011.15 1010.32 1009.78 1009.24 1009.01 1008.97 1009.10 1009.68 1009.79 1009.85 1009.58 1009.37 1009.21 1009.21 1009.05 1008.74 1008.31 1008.39 1008.19 1007.38
1019.49 1019.45 1018.90 1018.86 1019.00 1018.88 1019.00 1018.44 1017.64 1017.36 1016.39 1015.21 1014.81 1014.36 1014.59 1014.46 1014.45 1014.72 1014.70 1014.43 1013.73 1012.60 1011.54 1011.16 1010.25 1009.85 1009.66 1009.18 1008.63 1009.05 1009.48 1009.80 1009.63 1009.56 1009.04 1009.03 1008.62 1008.58 1008.67 1008.56 1008.12 1008.06 1007.84 1007.21
1018.44 1018.93 1018.46 1018.40 1018.53 1018.52 1018.09 1016.90 1016.10 1015.53 1014.74 1015.00 1014.70 1014.51 1014.59 1014.75 1015.23 1015.50 1015.43 1014.74 1013.62 1012.52 1011.61 1010.90 1010.48 1010.87 1010.61 1010.85 1010.68 1010.21 1009.65 1009.39 1009.23 1009.06 1008.78 1008.55 1008.45 1008.36 1008.07 1007.78 1007.48 1007.27 1006.64 1006.28
1018.61 1018.06 1018.08 1017.81 1017.43 1016.78 1016.20 1015.55 1015.06 1014.84 1014.59 1014.87 1015.32 1015.49 1015.38 1015.59 1015.67 1015.57 1015.45 1014.50 1013.43 1012.04 1010.86 1010.35 1011.01 1011.09 1011.24 1011.11 1010.74 1010.55 1010.01 1009.55 1009.22 1008.79 1008.37 1008.03 1007.79 1007.40 1007.27 1007.21 1006.85 1006.80 1006.68 1006.33
1018.33 1017.63 1017.16 1016.18 1015.66 1015.07 1014.73 1014.38 1014.40 1014.31 1014.16 1014.56 1015.46 1015.93 1015.85 1015.78 1015.89 1015.65 1015.08 1013.95 1012.41 1010.97 1010.08 1010.26 1010.45 1010.40 1010.60 1010.66 1010.34 1010.00 1009.51 1009.04 1008.68 1008.10 1007.58 1007.04 1006.60 1006.46 1006.25 1006.35 1006.39 1006.48 1006.20 1005.76
1018.03 1016.88 1015.67 1014.81 1014.82 1014.71 1014.42 1014.28 1014.04 1013.87 1013.68 1014.03 1014.69 1015.11 1015.19 1015.22 1015.13 1014.65 1013.81 1012.47 1010.78 1010.07 1009.75 1009.65 1009.68 1009.84 1009.74 1009.82 1009.71 1009.30 1008.68 1008.09 1007.48 1007.08 1006.87 1006.65 1006.34 1006.12 1005.69 1005.63 1005.59 1005.48 1005.28 1004.94
1016.57 1015.46 1014.67 1014.55 1014.05 1013.80 1013.61 1013.41 1013.50 1013.06 1013.44 1013.58 1014.17 1014.73 1014.18 1014.10 1014.11 1013.09 1011.79 1010.79 1010.09 1009.78 1009.53 1009.37 1009.67 1009.78 1009.67 1009.31 1008.75 1008.13 1007.52 1006.98 1006.74 1006.52 1006.38 1006.22 1005.85 1005.42 1005.09 1004.77 1004.53 1004.45 1004.20 1004.01
Wind_Speed
15 17 19 21 23 30 8 4 2 4 2 1 4 4 6 6 9 5 2 3 5 6 8 7 5 7 5 4 3 3 2 2 3 7 15 10 7 3 4 6 6 1 3 8
13 16 18 19 18 17 6 5 4 5 5 3 4 7 14 2 5 3 2 3 4 5 6 5 5 3 4 4 5 3 4 4 4 10 7 6 6 6 3 4 2 4 2 7
11 14 17 19 18 13 3 4 4 2 1 3 6 6 8 2 5 2 4 6 7 6 3 5 4 4 5 5 5 7 6 1 4 6 7 4 7 10 3 6 4 5 9 7
10 13 16 19 22 19 2 3 3 5 4 5 7 7 9 10 2 3 4 0 6 7 2 6 7 6 1 7 8 4 5 3 3 8 11 13 12 12 9 5 7 5 10 7
9 12 14 18 23 27 2 3 4 5 6 8 5 4 5 9 11 1 6 6 6 6 4 6 6 6 6 6 6 5 4 3 4 6 11 14 17 13 11 11 11 11 12 12
6 9 12 16 20 18 4 4 5 3 6 7 5 5 7 6 4 5 7 8 6 9 8 6 5 3 4 3 3 4 4 1 1 4 8 14 9 9 9 9 9 8 10 12
4 7 10 12 14 12 2 3 2 3 5 6 8 12 7 6 6 4 7 6 3 3 6 6 4 5 6 7 8 6 3 3 1 3 7 9 9 7 11 14 10 11 6 13
4 4 7 10 12 12 3 4 3 3 5 7 12 12 10 5 4 1 2 2 4 1 5 5 6 4 3 8 15 13 10 6 1 2 5 15 15 16 9 11 16 14 4 8
6 2 4 8 10 12 3 3 3 2 3 3 12 10 9 4 4 4 4 10 4 6 3 0 5 5 2 4 4 13 8 7 6 3 4 6 3 4 9 6 6 9 11 10
7 4 2 4 8 10 4 4 2 2 4 5 7 4 4 5 5 3 2 7 3 3 3 3 4 6 5 6 6 1 5 6 13 10 6 7 3 10 6 2 5 4 5 7
9 6 3 3 6 8 5 5 1 1 3 8 6 8 6 4 3 1 5 4 1 2 3 2 4 4 6 6 7 7 6 6 8 8 10 14 6 6 4 2 4 9 6 4
10 7 4 4 4 6 6 4 2 2 2 5 8 9 10 6 3 2 4 2 2 1 1 1 3 4 4 4 4 5 4 2 3 4 6 6 1 4 6 6 4 3 6 13
11 8 6 4 3 4 4 4 4 3 3 6 7 8 11 6 4 1 2 2 3 4 2 1 2 3 4 3 4 7 6 6 2 5 5 7 6 2 4 5 5 6 5 5
11 8 6 5 4 4 5 3 5 3 3 4 3 5 4 7 7 5 4 2 4 2 2 2 2 1 1 3 6 7 4 7 5 7 6 6 7 6 7 3 5 5 6 7
11 10 7 6 4 6 5 5 5 5 1 4 7 10 9 4 6 5 4 2 3 1 2 3 3 2 2 6 8 14 3 4 2 8 4 4 7 5 5 5 6 6 5 5
11 9 7 5 1 4 4 3 2 6 3 2 4 4 5 9 8 6 6 4 3 3 2 3 4 6 1 4 7 5 6 10 8 12 5 7 10 7 4 6 7 6 7 8
10 8 6 3 1 2 1 1 2 8 3 3 4 4 5 11 9 6 3 4 3 4 4 6 7 5 3 5 16 11 10 11 14 17 15 13 9 11 8 8 9 9 8 7
9 7 4 2 2 6 4 3 5 3 2 3 3 5 3 5 3 2 5 5 4 4 5 3 5 4 6 11 13 17 18 18 17 15 15 16 16 16 17 16 13 15 14 12
9 6 4 3 2 2 3 7 2 3 2 2 3 3 3 3 4 3 3 5 4 5 8 9 4 8 9 8 13 16 18 17 16 15 15 9 6 9 12 13 11 10 12 15
8 3 3 2 2 13 8 1 1 1 2 3 4 4 6 6 4 3 2 4 6 5 8 6 10 14 18 15 13 11 9 3 4 5 6 7 9 8 9 10 11 12 15 16
3 3 1 3 6 2 3 1 3 4 4 5 5 8 7 4 7 5 3 3 3 4 6 4 10 13 12 15 12 6 6 1 2 4 6 5 7 10 11 14 13 13 14 14
3 2 4 3 3 2 2 4 4 5 5 6 5 6 6 1 4 3 4 3 3 6 3 3 6 8 5 9 5 4 1 6 7 10 10 11 7 9 11 13 11 12 10 12
3 4 5 3 1 2 5 5 4 4 2 5 9 3 3 3 3 1 2 3 5 3 5 6 2 9 13 14 13 15 10 6 7 8 9 9 12 12 11 13 10 12 10 16
2 2 1 3 5 6 6 6 6 4 2 4 3 2 2 2 1 2 2 5 4 5 5 9 1 4 6 7 6 9 14 15 14 12 13 14 15 13 11 13 10 9 11 13
3 2 4 7 7 7 6 7 3 5 4 3 2 0 3 3 1 3 4 5 6 6 4 1 3 6 6 8 7 8 11 13 13 14 15 17 15 14 13 11 7 10 13 13
4 6 6 6 1 7 5 2 4 6 4 2 3 3 3 4 4 5 7 5 6 5 3 2 3 5 6 7 9 12 13 14 14 11 11 10 11 11 11 10 11 13 14 14
4 5 7 9 6 8 7 5 5 4 2 4 3 3 6 3 4 4 5 10 10 8 11 7 8 9 11 13 14 13 14 12 11 10 11 13 14 13 13 13 14 12 14 12
Wind_Direction
343 345 346 354 354 340 19 319 288 203 132 60 216 228 247 289 103 86 328 302 322 317 356 6 353 66 60 20 350 43 32 208 268 249 284 291 282 1 105 103 294 125 138 268
344 344 343 350 0 14 319 320 267 264 110 236 254 289 262 172 16 58 319 317 343 16 354 10 355 42 97 0 62 66 328 342 339 328 339 28 31 41 147 172 5 252 173 272
339 342 343 343 352 355 318 288 298 301 160 243 281 318 306 168 91 34 351 1 349 3 339 318 307 311 159 92 110 138 88 230 188 214 261 317 310 315 123 117 110 274 287 306
342 345 344 342 342 339 248 236 309 345 330 348 354 3 339 316 106 227 109 9 258 274 269 300 288 326 97 154 151 106 112 236 273 283 293 301 296 295 293 185 235 215 275 272
337 344 344 348 344 337 187 343 4 351 294 303 302 316 300 308 294 267 194 182 296 330 24 44 27 22 32 54 318 158 179 253 332 305 299 290 289 285 274 274 275 282 284 283
318 340 349 356 359 345 352 1 346 345 294 311 312 255 248 285 329 9 65 59 20 55 25 357 329 319 278 265 328 334 347 152 19 256 308 318 298 255 274 263 254 231 251 252
285 336 352 356 8 19 303 308 312 298 287 307 293 312 329 2 40 15 12 77 65 49 345 310 298 287 264 259 260 200 241 10 11 263 359 266 244 259 275 281 286 323 292 85
240 315 347 352 359 6 320 304 320 319 288 292 289 333 328 219 142 267 310 41 123 324 32 13 322 278 278 245 238 226 180 162 256 193 213 282 299 300 303 309 295 354 142 89
218 254 334 350 356 0 304 318 328 308 306 225 352 324 310 327 347 314 224 62 96 78 80 243 231 233 280 269 242 224 152 158 155 196 235 257 12 329 18 323 279 4 51 47
206 218 270 342 347 359 333 306 339 267 271 277 4 1 329 358 360 321 3 146 83 67 150 219 231 245 263 236 249 12 174 183 203 214 229 269 306 323 3 275 282 355 40 33
199 214 244 297 333 358 355 293 238 63 289 307 338 356 336 325 302 344 347 21 356 127 161 238 249 258 240 246 249 243 200 179 209 218 234 264 6 37 34 241 19 21 346 78
194 204 225 258 306 353 357 276 211 163 228 275 314 269 279 290 11 36 324 291 324 330 158 96 336 342 344 345 285 313 280 183 217 187 208 179 146 155 153 151 133 12 16 342
186 199 223 248 280 341 342 300 305 266 254 266 244 245 230 224 208 192 151 37 12 47 286 274 248 287 26 323 296 331 312 22 13 21 16 348 344 231 136 130 138 164 119 357
176 198 222 239 269 311 322 296 304 293 284 273 329 24 75 165 184 184 208 243 63 23 353 290 229 222 337 271 276 279 263 333 308 285 319 330 56 31 25 19 231 176 182 187
187 195 209 231 253 299 290 270 266 277 198 312 315 315 276 154 143 201 236 185 127 191 277 231 237 201 274 256 268 265 239 261 270 277 302 232 266 282 282 262 260 271 242 241
176 184 199 198 231 328 264 232 98 2 359 275 282 353 261 161 156 182 200 201 184 188 218 246 237 239 240 254 254 236 301 308 288 284 275 262 260 273 298 296 301 285 265 250
166 168 178 190 258 290 303 340 342 330 327 257 280 265 205 167 166 208 188 209 215 202 232 224 246 258 248 261 263 277 276 282 290 289 299 301 301 289 285 276 275 278 262 253
159 161 160 176 296 282 264 209 244 303 279 305 280 267 203 146 189 215 191 204 191 206 212 233 227 245 223 243 247 258 262 259 257 258 258 258 261 266 272 272 271 270 266 267
154 155 170 212 235 230 80 118 192 252 299 318 290 269 331 158 240 239 225 174 224 208 219 225 212 227 226 229 242 252 259 261 264 265 259 266 289 296 297 292 250 259 272 257
146 188 202 192 145 117 138 75 122 208 262 226 257 285 264 339 322 271 236 215 220 242 244 231 230 246 245 246 251 249 260 12 344 342 330 335 308 293 283 281 320 272 251 259
209 218 121 65 150 187 199 196 207 195 225 214 238 219 250 261 248 263 252 299 303 283 271 249 263 264 271 269 257 202 119 184 304 320 298 251 243 264 282 291 283 282 301 275
316 305 263 158 202 155 218 222 209 194 240 190 214 217 201 251 49 26 357 281 287 253 278 255 247 267 333 352 25 65 226 248 222 225 235 256 279 273 273 279 278 276 285 301
240 198 191 138 193 161 223 216 205 221 254 8 349 39 9 56 62 44 282 274 249 259 235 243 292 21 11 359 348 341 321 272 293 288 308 294 294 285 280 267 273 278 293 308
253 207 344 221 208 212 211 250 282 248 229 187 177 307 140 202 84 299 240 241 258 251 258 268 51 9 330 290 309 315 301 303 292 285 283 276 271 266 274 282 266 285 288 276
273 225 233 217 232 267 247 225 302 279 235 135 138 119 233 203 248 215 261 254 239 241 281 72 225 226 236 252 266 261 268 277 287 286 282 281 272 267 268 260 274 285 281 277
243 233 256 296 358 309 312 290 265 273 274 204 135 237 223 198 218 201 219 246 242 276 282 296 289 266 274 265 266 266 276 278 277 278 290 305 302 288 277 269 268 264 263 264
241 235 225 247 253 232 250 178 234 229 198 221 137 262 228 151 233 237 228 248 269 316 311 322 350 346 325 311 295 294 290 288 293 287 285 283 279 277 273 267 268 261 257 249